Epoch 2015 Dec. 4.0 TT = JDT 2457360.5 T 2015 Nov. 14.25532 TT MPCW q 1.4176473 (2000.0) P Q n 0.18374314 Peri. 195.54570 +0.68125943 +0.70845173 a 3.0642812 Node 117.80520 -0.64746033 +0.70063131 e 0.5373638 Incl. 12.02883 -0.34158557 +0.08492292 P 5.36 From 2873 observations 1972 Feb. 10-2015 Feb. 23, mean residual 0".7. Nongravitational parameters A1 = +0.03, A2 = +0.0007.
H = 13.6 G = 0.15 [ ,-170] ( 〜2015年 5月28日) m1 = 4.6 + 5 logΔ + 35 log r [-170, 0] (2015年 5月28日〜2015年11月14日) m1 = 7.2 + 5 logΔ + 18 log r [ 0, 425] (2015年11月14日〜2017年 1月12日) H = 13.6 G = 0.15 [ 425, ] (2017年 1月12日〜 )